Location: DARK SKY Beskydy - Park tmavé oblohy, www.darkskybeskydy.cz
(49.4926°N, 18.5016°E)
Time: 04:10:12
(UTC+01:00)

Envisat - Pass Details

Date: 03 December 2022
Orbit: 763 x 765 km, 98.2° (Epoch: 05 February)

Event Time Altitude Azimuth Distance (km) Brightness Sun altitude
Rises 16:38:59 0° 220° (SW) 3,220 7.6 -8.0°
Reaches altitude 10° 16:42:42 10° 248° (WSW) 2,301 7.2 -8.5°
Maximum altitude 16:44:55 13° 275° (W) 2,114 6.3 -8.9°
Drops below altitude 10° 16:47:09 10° 301° (WNW) 2,309 6.0 -9.2°
Sets 16:50:54 0° 329° (NNW) 3,243 6.4 -9.8°
